Location: Borovka
(49.7741°N, 14.5280°E)
Time: 07:43:01
(UTC+00:00)

POLYITAN 1 - Visible Passes

Search period start: 11 March 2026 00:00
Search period end: 21 March 2026 00:00
Orbit: 471 x 483 km, 98.1° (Epoch: 10 March)

Date Brightness Start Highest point End Pass type
(mag) Time Alt. Az. Time Alt. Az. Time Alt. Az.
11 Mar ? 04:51:09 10° ENE 04:51:58 11° E 04:52:45 10° ESE visible
12 Mar ? 18:09:16 10° WSW 18:11:07 14° W 18:13:00 10° WNW visible
13 Mar ? 17:41:06 10° SSW 17:44:07 26° W 17:47:09 10° NW visible
15 Mar ? 18:23:27 10° W 18:23:54 10° W 18:24:22 10° W visible
16 Mar ? 17:54:03 10° SW 17:56:43 20° W 17:59:23 10° NW visible
19 Mar ? 18:06:45 10° SW 18:08:55 15° W 18:11:06 10° NW visible
